Voltar ao catálogo

FALCON 9 R/B

AtivoMEO
NORAD 56369·ROCKET BODY·🇺🇸 United States

Lançado Apr 28, 2023 de Cape Canaveral Space Force Station

Loading…

Próximas Passagens (próximas 24 horas)

TLE

AtualizadoSource: Space-Track

Época: Sep 14, 2026, 22:21 UTC

1 56369U 23059C   26257.93139133  .00000023  00000-0 -12240-1 0  9998
2 56369   8.5876  29.4872 1881248 107.1711 274.2106  7.26687740 89845

Acompanhe FALCON 9 R/B em tempo real com AllMySat

Download on the App Store